Zurück zum Katalog

CZ-4 DEB

AktivSSO
NORAD 26272·DEBRIS·🇨🇳 China

Gestartet Oct 14, 1999 von Taiyuan Satellite Launch Center

Loading…

Nächste Überflüge (nächste 24 Stunden)

TLE

AktuellSource: Space-Track

Epoche: Sep 14, 2026, 18:04 UTC

1 26272U 99057FJ  26257.75329303  .00005726  00000-0  69156-3 0  9993
2 26272  98.2665 352.7572 0049006 154.3428   5.4540 14.83312574402130

Verfolge CZ-4 DEB in Echtzeit mit AllMySat

Download on the App Store